| time (UTC) | temp F | wind direction | speed MPH | gust MPH | rain 1hr in | rain 24hr in | rain mn in | humidity % | barometer mb |
| 20260903171321 | 91 | 227 | 0.0 | 0.0 | 0.00 | 0.00 | 0.00 | 58 | 1020.9 |
| 20260903170820 | 91 | 195 | 0.0 | 1.0 | 0.00 | 0.00 | 0.00 | 61 | 1021.1 |
| 20260903170315 | 92 | 227 | 0.0 | 1.0 | 0.00 | 0.00 | 0.00 | 60 | 1021.0 |
| 20260903165813 | 94 | 55 | 1.0 | 3.0 | 0.00 | 0.00 | 0.00 | 57 | 1021.1 |
| 20260903165308 | 95 | 185 | 0.0 | 3.0 | 0.00 | 0.00 | 0.00 | 57 | 1021.1 |
| 20260903164803 | 95 | 204 | 2.0 | 3.0 | 0.00 | 0.00 | 0.00 | 56 | 1021.2 |
| 20260903164259 | 94 | 251 | 0.0 | 2.0 | 0.00 | 0.00 | 0.00 | 59 | 1021.2 |
| 20260903163757 | 95 | 296 | 0.0 | 1.0 | 0.00 | 0.00 | 0.00 | 54 | 1021.2 |
| 20260903163255 | 94 | 20 | 1.0 | 1.0 | 0.00 | 0.00 | 0.00 | 59 | 1021.3 |
| 20260903162752 | 94 | 223 | 0.0 | 2.0 | 0.00 | 0.00 | 0.00 | 58 | 1021.3 |
| 20260903162246 | 92 | 230 | 0.0 | 2.0 | 0.00 | 0.00 | 0.00 | 56 | 1021.5 |
| 20260903161742 | 92 | 48 | 4.0 | 4.0 | 0.00 | 0.00 | 0.00 | 60 | 1021.4 |
| 20260903161237 | 92 | 23 | 3.0 | 6.0 | 0.00 | 0.00 | 0.00 | 59 | 1021.5 |
| 20260903160733 | 94 | 24 | 3.0 | 4.0 | 0.00 | 0.00 | 0.00 | 58 | 1021.6 |
| 20260903160231 | 92 | 205 | 1.0 | 3.0 | 0.00 | 0.00 | 0.00 | 62 | 1021.6 |
| 20260903155730 | 95 | 109 | 0.0 | 1.0 | 0.00 | 0.00 | 0.00 | 58 | 1021.5 |
| 20260903155225 | 93 | 49 | 1.0 | 2.0 | 0.00 | 0.00 | 0.00 | 60 | 1021.6 |
| 20260903154721 | 93 | 32 | 2.0 | 3.0 | 0.00 | 0.00 | 0.00 | 60 | 1021.8 |
| 20260903154217 | 92 | 75 | 0.0 | 2.0 | 0.00 | 0.00 | 0.00 | 62 | 1021.6 |
| 20260903153712 | 92 | 239 | 3.0 | 3.0 | 0.00 | 0.00 | 0.00 | 63 | 1021.5 |
| 20260903153208 | 92 | 249 | 0.0 | 2.0 | 0.00 | 0.00 | 0.00 | 65 | 1021.6 |
| 20260903152704 | 91 | 25 | 1.0 | 1.0 | 0.00 | 0.00 | 0.00 | 65 | 1021.4 |
| 20260903152200 | 90 | 18 | 2.0 | 3.0 | 0.00 | 0.00 | 0.00 | 66 | 1021.6 |
| 20260903151700 | 90 | 7 | 0.0 | 2.0 | 0.00 | 0.00 | 0.00 | 66 | 1021.6 |
| 20260903151155 | 91 | 90 | 3.0 | 4.0 | 0.00 | 0.00 | 0.00 | 66 | 1021.7 |
| 20260903150655 | 91 | 58 | 0.0 | 2.0 | 0.00 | 0.00 | 0.00 | 67 | 1021.4 |
| 20260903150150 | 90 | 253 | 0.0 | 0.0 | 0.00 | 0.00 | 0.00 | 69 | 1021.6 |
| 20260903145650 | 89 | 239 | 1.0 | 2.0 | 0.00 | 0.00 | 0.00 | 69 | 1021.5 |
| 20260903145145 | 89 | 54 | 2.0 | 3.0 | 0.00 | 0.00 | 0.00 | 68 | 1021.6 |
| 20260903144643 | 88 | 243 | 0.0 | 3.0 | 0.00 | 0.00 | 0.00 | 71 | 1021.5 |
| 20260903144140 | 89 | 258 | 2.0 | 2.0 | 0.00 | 0.00 | 0.00 | 70 | 1021.6 |
| 20260903143636 | 90 | 262 | 0.0 | 2.0 | 0.00 | 0.00 | 0.00 | 66 | 1021.2 |
| 20260903143131 | 89 | 309 | 0.0 | 0.0 | 0.00 | 0.00 | 0.00 | 69 | 1021.4 |
| 20260903142627 | 88 | 80 | 1.0 | 3.0 | 0.00 | 0.00 | 0.00 | 70 | 1021.4 |
| 20260903142123 | 89 | 9 | 1.0 | 2.0 | 0.00 | 0.00 | 0.00 | 66 | 1021.7 |
| 20260903141619 | 89 | 138 | 0.0 | 0.0 | 0.00 | 0.00 | 0.00 | 65 | 1021.6 |
| 20260903141114 | 89 | 205 | 0.0 | 0.0 | 0.00 | 0.00 | 0.00 | 70 | 1021.7 |
| 20260903140610 | 90 | 205 | 0.0 | 0.0 | 0.00 | 0.00 | 0.00 | 67 | 1021.5 |
| 20260903140105 | 89 | 99 | 0.0 | 0.0 | 0.00 | 0.00 | 0.00 | 70 | 1021.7 |
| 20260903135601 | 87 | 98 | 0.0 | 0.0 | 0.00 | 0.00 | 0.00 | 73 | 1021.6 |
| 20260903135101 | 89 | 125 | 0.0 | 2.0 | 0.00 | 0.00 | 0.00 | 72 | 1021.5 |
| 20260903134559 | 88 | 208 | 0.0 | 0.0 | 0.00 | 0.00 | 0.00 | 73 | 1021.8 |
| 20260903134055 | 87 | 226 | 0.0 | 0.0 | 0.00 | 0.00 | 0.00 | 72 | 1021.6 |
| 20260903133553 | 85 | 233 | 0.0 | 0.0 | 0.00 | 0.00 | 0.00 | 75 | 1021.6 |
| 20260903133049 | 85 | 345 | 0.0 | 1.0 | 0.00 | 0.00 | 0.00 | 77 | 1021.6 |
| 20260903132543 | 86 | 345 | 0.0 | 0.0 | 0.00 | 0.00 | 0.00 | 73 | 1021.7 |
| 20260903132038 | 85 | 345 | 0.0 | 1.0 | 0.00 | 0.00 | 0.00 | 76 | 1021.7 |
| 20260903131533 | 83 | 345 | 0.0 | 0.0 | 0.00 | 0.00 | 0.00 | 78 | 1021.6 |
| 20260903131032 | 82 | 346 | 0.0 | 0.0 | 0.00 | 0.00 | 0.00 | 80 | 1021.6 |
| 20260903130526 | 83 | 255 | 0.0 | 0.0 | 0.00 | 0.00 | 0.00 | 81 | 1021.9 |
| 20260903130021 | 82 | 255 | 0.0 | 0.0 | 0.00 | 0.00 | 0.00 | 82 | 1021.8 |
| 20260903125519 | 81 | 249 | 0.0 | 0.0 | 0.00 | 0.00 | 0.00 | 83 | 1022.1 |
| 20260903125015 | 81 | 174 | 0.0 | 0.0 | 0.00 | 0.00 | 0.00 | 83 | 1021.9 |
| 20260903124509 | 80 | 249 | 0.0 | 0.0 | 0.00 | 0.00 | 0.00 | 85 | 1021.9 |
| 20260903124008 | 80 | 146 | 0.0 | 0.0 | 0.00 | 0.00 | 0.00 | 85 | 1021.7 |
| 20260903123504 | 80 | 227 | 0.0 | 0.0 | 0.00 | 0.00 | 0.00 | 86 | 1021.8 |
| 20260903123002 | 79 | 228 | 0.0 | 0.0 | 0.00 | 0.00 | 0.00 | 86 | 1021.8 |
| 20260903122502 | 79 | 222 | 0.0 | 0.0 | 0.00 | 0.00 | 0.00 | 86 | 1021.8 |
| 20260903121955 | 78 | 230 | 0.0 | 0.0 | 0.00 | 0.00 | 0.00 | 88 | 1021.9 |
| 20260903121451 | 78 | 231 | 0.0 | 0.0 | 0.00 | 0.00 | 0.00 | 88 | 1021.8 |
| 20260903120947 | 78 | 222 | 0.0 | 0.0 | 0.00 | 0.00 | 0.00 | 87 | 1021.8 |
| 20260903120445 | 78 | 222 | 0.0 | 0.0 | 0.00 | 0.00 | 0.00 | 90 | 1021.6 |
| 20260903115944 | 76 | 221 | 0.0 | 0.0 | 0.00 | 0.00 | 0.00 | 92 | 1021.7 |
| 20260903115444 | 75 | 226 | 0.0 | 0.0 | 0.00 | 0.00 | 0.00 | 93 | 1021.7 |
| 20260903114939 | 74 | 232 | 0.0 | 0.0 | 0.00 | 0.00 | 0.00 | 95 | 1021.5 |
| 20260903114434 | 74 | 232 | 0.0 | 0.0 | 0.00 | 0.00 | 0.00 | 97 | 1021.6 |
| 20260903113930 | 73 | 232 | 0.0 | 0.0 | 0.00 | 0.00 | 0.00 | 98 | 1021.4 |
| 20260903113426 | 72 | 228 | 0.0 | 0.0 | 0.00 | 0.00 | 0.00 | 98 | 1021.6 |
| 20260903112921 | 72 | 228 | 0.0 | 0.0 | 0.00 | 0.00 | 0.00 | 99 | 1021.5 |
| 20260903112417 | 72 | 229 | 0.0 | 0.0 | 0.00 | 0.00 | 0.00 | 99 | 1021.5 |
| 20260903111916 | 72 | 229 | 0.0 | 0.0 | 0.00 | 0.00 | 0.00 | 99 | 1021.2 |
| 20260903111415 | 72 | 229 | 0.0 | 0.0 | 0.00 | 0.00 | 0.00 | 99 | 1021.4 |
| 20260903110912 | 72 | 229 | 0.0 | 0.0 | 0.00 | 0.00 | 0.00 | 99 | 1021.0 |
| 20260903110407 | 72 | 228 | 0.0 | 0.0 | 0.00 | 0.00 | 0.00 | 98 | 1020.9 |
| 20260903105901 | 72 | 228 | 0.0 | 0.0 | 0.00 | 0.00 | 0.00 | 98 | 1021.0 |
| 20260903105357 | 72 | 227 | 0.0 | 0.0 | 0.00 | 0.00 | 0.00 | 98 | 1021.1 |
| 20260903104856 | 72 | 233 | 0.0 | 0.0 | 0.00 | 0.00 | 0.00 | 98 | 1021.0 |
| 20260903104350 | 72 | 232 | 0.0 | 0.0 | 0.00 | 0.00 | 0.00 | 98 | 1020.9 |
| 20260903103848 | 73 | 230 | 0.0 | 0.0 | 0.00 | 0.00 | 0.00 | 98 | 1020.9 |
| 20260903103343 | 72 | 238 | 0.0 | 0.0 | 0.00 | 0.00 | 0.00 | 99 | 1020.9 |
| 20260903102838 | 72 | 232 | 0.0 | 0.0 | 0.00 | 0.00 | 0.00 | 99 | 1020.5 |
| 20260903102333 | 72 | 235 | 0.0 | 0.0 | 0.00 | 0.00 | 0.00 | 99 | 1020.9 |
| 20260903101833 | 72 | 232 | 0.0 | 0.0 | 0.00 | 0.00 | 0.00 | 99 | 1020.8 |
| 20260903101328 | 72 | 232 | 0.0 | 0.0 | 0.00 | 0.00 | 0.00 | 99 | 1020.9 |
| 20260903100823 | 72 | 230 | 0.0 | 0.0 | 0.00 | 0.00 | 0.00 | 99 | 1020.7 |
| 20260903100318 | 72 | 228 | 0.0 | 0.0 | 0.00 | 0.00 | 0.00 | 99 | 1020.4 |
| 20260903095815 | 72 | 228 | 0.0 | 0.0 | 0.00 | 0.00 | 0.00 | 98 | 1020.5 |
| 20260903095309 | 73 | 228 | 0.0 | 0.0 | 0.00 | 0.00 | 0.00 | 98 | 1020.8 |
| 20260903094805 | 73 | 229 | 0.0 | 0.0 | 0.00 | 0.00 | 0.00 | 98 | 1020.5 |
| 20260903094259 | 73 | 229 | 0.0 | 0.0 | 0.00 | 0.00 | 0.00 | 98 | 1020.4 |
| 20260903093755 | 73 | 227 | 0.0 | 0.0 | 0.00 | 0.00 | 0.00 | 98 | 1020.5 |
| 20260903093249 | 73 | 232 | 0.0 | 0.0 | 0.00 | 0.00 | 0.00 | 98 | 1020.5 |
| 20260903092744 | 73 | 228 | 0.0 | 0.0 | 0.00 | 0.00 | 0.00 | 98 | 1020.5 |
| 20260903092239 | 73 | 224 | 0.0 | 0.0 | 0.00 | 0.00 | 0.00 | 98 | 1020.5 |
| 20260903091737 | 73 | 232 | 0.0 | 0.0 | 0.00 | 0.00 | 0.00 | 97 | 1020.5 |
| 20260903091232 | 73 | 232 | 0.0 | 0.0 | 0.00 | 0.00 | 0.00 | 97 | 1020.7 |
| 20260903090727 | 73 | 232 | 0.0 | 0.0 | 0.00 | 0.00 | 0.00 | 97 | 1020.5 |
| 20260903090226 | 73 | 232 | 0.0 | 0.0 | 0.00 | 0.00 | 0.00 | 97 | 1020.3 |
| 20260903085720 | 73 | 232 | 0.0 | 0.0 | 0.00 | 0.00 | 0.00 | 97 | 1020.4 |
| 20260903085215 | 74 | 230 | 0.0 | 0.0 | 0.00 | 0.00 | 0.00 | 97 | 1020.4 |
| 20260903084713 | 74 | 232 | 0.0 | 0.0 | 0.00 | 0.00 | 0.00 | 97 | 1020.4 |
| 20260903084208 | 74 | 237 | 0.0 | 0.0 | 0.00 | 0.00 | 0.00 | 97 | 1020.4 |
| 20260903083703 | 74 | 245 | 0.0 | 1.0 | 0.00 | 0.00 | 0.00 | 97 | 1020.4 |
| 20260903083158 | 74 | 230 | 0.0 | 0.0 | 0.00 | 0.00 | 0.00 | 97 | 1020.5 |
| 20260903082651 | 74 | 233 | 0.0 | 0.0 | 0.00 | 0.00 | 0.00 | 96 | 1020.7 |
| 20260903082147 | 74 | 220 | 0.0 | 0.0 | 0.00 | 0.00 | 0.00 | 96 | 1020.8 |
| 20260903081636 | 74 | 233 | 0.0 | 0.0 | 0.00 | 0.00 | 0.00 | 96 | 1020.8 |
| 20260903081132 | 74 | 230 | 0.0 | 0.0 | 0.00 | 0.00 | 0.00 | 97 | 1020.8 |
| 20260903080628 | 74 | 230 | 0.0 | 0.0 | 0.00 | 0.00 | 0.00 | 97 | 1020.8 |
| 20260903080125 | 74 | 230 | 0.0 | 0.0 | 0.00 | 0.00 | 0.00 | 97 | 1021.0 |
| 20260903075619 | 74 | 230 | 0.0 | 0.0 | 0.00 | 0.00 | 0.00 | 97 | 1020.8 |
| 20260903075114 | 74 | 230 | 0.0 | 0.0 | 0.00 | 0.00 | 0.00 | 97 | 1020.7 |
| 20260903074613 | 74 | 231 | 0.0 | 0.0 | 0.00 | 0.00 | 0.00 | 97 | 1020.8 |
| 20260903074108 | 74 | 231 | 0.0 | 0.0 | 0.00 | 0.00 | 0.00 | 97 | 1020.8 |
| 20260903073604 | 74 | 230 | 0.0 | 0.0 | 0.00 | 0.00 | 0.00 | 97 | 1020.4 |
| 20260903073059 | 74 | 230 | 0.0 | 0.0 | 0.00 | 0.00 | 0.00 | 97 | 1020.4 |
| 20260903072555 | 74 | 230 | 0.0 | 0.0 | 0.00 | 0.00 | 0.00 | 97 | 1020.4 |
| 20260903072051 | 74 | 230 | 0.0 | 0.0 | 0.00 | 0.00 | 0.00 | 97 | 1020.7 |
| 20260903071548 | 74 | 229 | 0.0 | 0.0 | 0.00 | 0.00 | 0.00 | 96 | 1020.4 |
| 20260903071047 | 74 | 229 | 0.0 | 0.0 | 0.00 | 0.00 | 0.00 | 96 | 1020.2 |
| 20260903070542 | 74 | 229 | 0.0 | 0.0 | 0.00 | 0.00 | 0.00 | 96 | 1020.4 |
| 20260903070038 | 75 | 231 | 0.0 | 0.0 | 0.00 | 0.00 | 0.00 | 95 | 1020.5 |
| 20260903065537 | 75 | 231 | 0.0 | 0.0 | 0.00 | 0.00 | 0.00 | 95 | 1020.5 |
| 20260903065036 | 75 | 235 | 0.0 | 0.0 | 0.00 | 0.00 | 0.00 | 95 | 1020.1 |
| 20260903064531 | 76 | 233 | 0.0 | 0.0 | 0.00 | 0.00 | 0.00 | 94 | 1020.2 |
| 20260903064027 | 76 | 231 | 0.0 | 0.0 | 0.00 | 0.00 | 0.00 | 94 | 1020.3 |
| 20260903063522 | 76 | 230 | 0.0 | 0.0 | 0.00 | 0.00 | 0.00 | 94 | 1020.7 |
| 20260903063017 | 76 | 230 | 0.0 | 0.0 | 0.00 | 0.00 | 0.00 | 94 | 1020.3 |
| 20260903062512 | 76 | 227 | 0.0 | 0.0 | 0.00 | 0.00 | 0.00 | 94 | 1020.5 |
| 20260903062008 | 76 | 230 | 0.0 | 0.0 | 0.00 | 0.00 | 0.00 | 94 | 1020.3 |
| 20260903061503 | 76 | 230 | 0.0 | 0.0 | 0.00 | 0.00 | 0.00 | 94 | 1020.4 |
| 20260903060957 | 76 | 230 | 0.0 | 0.0 | 0.00 | 0.00 | 0.00 | 94 | 1020.5 |
| 20260903060452 | 76 | 230 | 0.0 | 0.0 | 0.00 | 0.00 | 0.00 | 94 | 1020.7 |
| 20260903055950 | 76 | 231 | 0.0 | 0.0 | 0.00 | 0.00 | 0.00 | 94 | 1020.5 |
| 20260903055448 | 76 | 228 | 0.0 | 0.0 | 0.00 | 0.00 | 0.00 | 94 | 1020.7 |
| 20260903054943 | 76 | 231 | 0.0 | 0.0 | 0.00 | 0.00 | 0.00 | 93 | 1020.8 |
| 20260903054437 | 76 | 232 | 0.0 | 0.0 | 0.00 | 0.00 | 0.00 | 93 | 1020.8 |
| 20260903053933 | 76 | 221 | 0.0 | 0.0 | 0.00 | 0.00 | 0.00 | 93 | 1020.8 |
| 20260903053433 | 76 | 229 | 0.0 | 0.0 | 0.00 | 0.00 | 0.00 | 94 | 1020.7 |
| 20260903052930 | 76 | 222 | 0.0 | 0.0 | 0.00 | 0.00 | 0.00 | 94 | 1020.8 |
| 20260903052426 | 76 | 231 | 0.0 | 0.0 | 0.00 | 0.00 | 0.00 | 94 | 1020.7 |
| 20260903051921 | 76 | 228 | 0.0 | 0.0 | 0.00 | 0.00 | 0.00 | 94 | 1020.7 |
| 20260903051416 | 77 | 233 | 0.0 | 0.0 | 0.00 | 0.00 | 0.00 | 93 | 1020.7 |
| 20260903050912 | 77 | 231 | 0.0 | 0.0 | 0.00 | 0.00 | 0.00 | 92 | 1020.8 |
| 20260903050410 | 77 | 222 | 0.0 | 0.0 | 0.00 | 0.00 | 0.00 | 92 | 1020.5 |
| 20260903045905 | 77 | 231 | 0.0 | 0.0 | 0.00 | 0.00 | 0.00 | 92 | 1020.7 |
| 20260903045401 | 77 | 225 | 0.0 | 0.0 | 0.00 | 0.00 | 0.00 | 92 | 1020.9 |
| 20260903044857 | 77 | 231 | 0.0 | 0.0 | 0.00 | 0.00 | 0.00 | 92 | 1020.9 |
| 20260903044352 | 77 | 231 | 0.0 | 0.0 | 0.00 | 0.00 | 0.00 | 92 | 1020.7 |
| 20260903043849 | 77 | 230 | 0.0 | 0.0 | 0.00 | 0.00 | 0.00 | 91 | 1020.7 |
| 20260903043343 | 78 | 235 | 0.0 | 0.0 | 0.00 | 0.00 | 0.00 | 91 | 1020.8 |
| 20260903042841 | 78 | 232 | 0.0 | 0.0 | 0.00 | 0.00 | 0.00 | 90 | 1020.7 |
| 20260903042337 | 78 | 232 | 0.0 | 0.0 | 0.00 | 0.00 | 0.00 | 91 | 1021.0 |
| 20260903041833 | 77 | 231 | 0.0 | 0.0 | 0.00 | 0.00 | 0.00 | 91 | 1021.0 |
| 20260903041329 | 77 | 231 | 0.0 | 0.0 | 0.00 | 0.00 | 0.00 | 90 | 1020.9 |
| 20260903040825 | 78 | 225 | 0.0 | 0.0 | 0.00 | 0.00 | 0.00 | 90 | 1020.7 |
| 20260903040323 | 78 | 225 | 0.0 | 0.0 | 0.00 | 0.00 | 0.00 | 89 | 1020.8 |
| 20260903035820 | 78 | 225 | 0.0 | 0.0 | 0.00 | 0.00 | 0.00 | 88 | 1020.9 |
| 20260903035315 | 78 | 225 | 0.0 | 0.0 | 0.00 | 0.00 | 0.00 | 88 | 1020.9 |
| 20260903034810 | 79 | 224 | 0.0 | 0.0 | 0.00 | 0.00 | 0.00 | 87 | 1020.9 |
| 20260903034305 | 79 | 232 | 0.0 | 0.0 | 0.00 | 0.00 | 0.00 | 87 | 1020.8 |
| 20260903033801 | 79 | 234 | 0.0 | 0.0 | 0.00 | 0.00 | 0.00 | 86 | 1021.1 |
| 20260903033255 | 79 | 230 | 0.0 | 0.0 | 0.00 | 0.00 | 0.00 | 85 | 1020.8 |
| 20260903032750 | 79 | 231 | 0.0 | 0.0 | 0.00 | 0.00 | 0.00 | 85 | 1021.1 |
| 20260903032246 | 79 | 232 | 0.0 | 0.0 | 0.00 | 0.00 | 0.00 | 83 | 1021.0 |
| 20260903031741 | 80 | 235 | 0.0 | 0.0 | 0.00 | 0.00 | 0.00 | 83 | 1021.1 |
| 20260903031235 | 80 | 234 | 0.0 | 0.0 | 0.00 | 0.00 | 0.00 | 83 | 1021.1 |
| 20260903030731 | 80 | 225 | 0.0 | 0.0 | 0.00 | 0.00 | 0.00 | 82 | 1021.2 |
| 20260903030226 | 79 | 231 | 0.0 | 0.0 | 0.00 | 0.00 | 0.00 | 82 | 1021.1 |
| 20260903025716 | 79 | 231 | 0.0 | 0.0 | 0.00 | 0.00 | 0.00 | 82 | 1021.0 |
| 20260903025212 | 80 | 234 | 0.0 | 0.0 | 0.00 | 0.00 | 0.00 | 82 | 1021.4 |
| 20260903024712 | 80 | 233 | 0.0 | 0.0 | 0.00 | 0.00 | 0.00 | 81 | 1021.1 |
| 20260903024211 | 80 | 234 | 0.0 | 0.0 | 0.00 | 0.00 | 0.00 | 81 | 1021.1 |
| 20260903023706 | 80 | 234 | 0.0 | 0.0 | 0.00 | 0.00 | 0.00 | 80 | 1021.2 |
| 20260903023201 | 81 | 233 | 0.0 | 0.0 | 0.00 | 0.00 | 0.00 | 79 | 1021.1 |
| 20260903022655 | 81 | 231 | 0.0 | 0.0 | 0.00 | 0.00 | 0.00 | 79 | 1021.1 |
| 20260903022150 | 81 | 228 | 0.0 | 0.0 | 0.00 | 0.00 | 0.00 | 79 | 1021.1 |
| 20260903021649 | 81 | 228 | 0.0 | 0.0 | 0.00 | 0.00 | 0.00 | 79 | 1020.9 |
| 20260903021144 | 81 | 223 | 0.0 | 0.0 | 0.00 | 0.00 | 0.00 | 80 | 1021.1 |
| 20260903020639 | 81 | 232 | 0.0 | 0.0 | 0.00 | 0.00 | 0.00 | 80 | 1021.1 |
| 20260903020134 | 80 | 230 | 0.0 | 0.0 | 0.00 | 0.00 | 0.00 | 80 | 1021.1 |
| 20260903015630 | 80 | 223 | 0.0 | 0.0 | 0.00 | 0.00 | 0.00 | 80 | 1020.9 |
| 20260903015125 | 81 | 233 | 0.0 | 0.0 | 0.00 | 0.00 | 0.00 | 82 | 1021.1 |
| 20260903014624 | 82 | 231 | 0.0 | 0.0 | 0.00 | 0.00 | 0.00 | 79 | 1020.7 |
| 20260903014124 | 82 | 231 | 0.0 | 0.0 | 0.00 | 0.00 | 0.00 | 78 | 1020.7 |
| 20260903013619 | 83 | 233 | 0.0 | 0.0 | 0.00 | 0.00 | 0.00 | 77 | 1020.5 |
| 20260903013114 | 82 | 233 | 0.0 | 0.0 | 0.00 | 0.00 | 0.00 | 77 | 1020.3 |
| 20260903012612 | 83 | 233 | 0.0 | 0.0 | 0.00 | 0.00 | 0.00 | 77 | 1020.4 |
| 20260903012111 | 83 | 232 | 0.0 | 0.0 | 0.00 | 0.00 | 0.00 | 75 | 1020.3 |
| 20260903011606 | 84 | 231 | 0.0 | 0.0 | 0.00 | 0.00 | 0.00 | 74 | 1020.3 |
| 20260903011105 | 83 | 230 | 0.0 | 0.0 | 0.00 | 0.00 | 0.00 | 74 | 1020.1 |
| 20260903010601 | 84 | 232 | 0.0 | 0.0 | 0.00 | 0.00 | 0.00 | 74 | 1020.3 |
| 20260903010059 | 84 | 230 | 0.0 | 0.0 | 0.00 | 0.00 | 0.00 | 71 | 1020.0 |
| 20260903005554 | 84 | 213 | 0.0 | 0.0 | 0.00 | 0.00 | 0.00 | 72 | 1019.9 |
| 20260903005049 | 84 | 231 | 0.0 | 0.0 | 0.00 | 0.00 | 0.00 | 73 | 1020.0 |
| 20260903004544 | 85 | 238 | 0.0 | 0.0 | 0.00 | 0.00 | 0.00 | 72 | 1019.9 |
| 20260903004040 | 84 | 231 | 0.0 | 0.0 | 0.00 | 0.00 | 0.00 | 72 | 1019.8 |
| 20260903003535 | 84 | 235 | 0.0 | 0.0 | 0.00 | 0.00 | 0.00 | 72 | 1019.9 |
| 20260903003030 | 86 | 231 | 0.0 | 0.0 | 0.00 | 0.00 | 0.00 | 69 | 1019.8 |
| 20260903002525 | 87 | 232 | 0.0 | 0.0 | 0.00 | 0.00 | 0.00 | 65 | 1019.8 |
| 20260903002019 | 87 | 227 | 0.0 | 0.0 | 0.00 | 0.00 | 0.00 | 64 | 1019.9 |
| 20260903001514 | 87 | 232 | 0.0 | 0.0 | 0.00 | 0.00 | 0.00 | 64 | 1019.8 |
| 20260903001014 | 87 | 232 | 0.0 | 0.0 | 0.00 | 0.00 | 0.00 | 63 | 1019.8 |
| 20260903000509 | 88 | 232 | 0.0 | 0.0 | 0.00 | 0.00 | 0.00 | 62 | 1019.7 |
| 20260903000008 | 89 | 229 | 0.0 | 0.0 | 0.00 | 0.00 | 0.00 | 61 | 1019.7 |
| 20260902235502 | 90 | 235 | 0.0 | 0.0 | 0.00 | 0.00 | 0.00 | 61 | 1019.7 |
| 20260902234957 | 90 | 91 | 0.0 | 0.0 | 0.00 | 0.00 | 0.00 | 59 | 1019.6 |
| 20260902234451 | 90 | 91 | 0.0 | 1.0 | 0.00 | 0.00 | 0.00 | 58 | 1019.6 |
| 20260902233950 | 91 | 211 | 0.0 | 1.0 | 0.00 | 0.00 | 0.00 | 57 | 1019.7 |
| 20260902233449 | 91 | 44 | 2.0 | 2.0 | 0.00 | 0.00 | 0.00 | 55 | 1019.7 |
| 20260902232944 | 91 | 231 | 0.0 | 0.0 | 0.00 | 0.00 | 0.00 | 56 | 1019.7 |
| 20260902232439 | 92 | 235 | 0.0 | 0.0 | 0.00 | 0.00 | 0.00 | 56 | 1019.8 |
| 20260902231938 | 92 | 177 | 0.0 | 3.0 | 0.00 | 0.00 | 0.00 | 54 | 1019.8 |
| 20260902231434 | 93 | 38 | 2.0 | 3.0 | 0.00 | 0.00 | 0.00 | 54 | 1019.7 |
| 20260902230928 | 93 | 237 | 1.0 | 1.0 | 0.00 | 0.00 | 0.00 | 53 | 1019.7 |
| 20260902230427 | 93 | 39 | 2.0 | 4.0 | 0.00 | 0.00 | 0.00 | 51 | 1019.6 |
| 20260902225922 | 94 | 84 | 0.0 | 2.0 | 0.00 | 0.00 | 0.00 | 51 | 1019.8 |
| 20260902225417 | 94 | 76 | 0.0 | 4.0 | 0.00 | 0.00 | 0.00 | 50 | 1019.8 |
| 20260902224916 | 94 | 6 | 1.0 | 3.0 | 0.00 | 0.00 | 0.00 | 50 | 1020.0 |
| 20260902224415 | 94 | 322 | 1.0 | 4.0 | 0.00 | 0.00 | 0.00 | 48 | 1019.7 |
| 20260902223912 | 94 | 32 | 2.0 | 2.0 | 0.00 | 0.00 | 0.00 | 49 | 1019.9 |
| 20260902223407 | 94 | 45 | 2.0 | 3.0 | 0.00 | 0.00 | 0.00 | 50 | 1019.9 |
| 20260902222901 | 94 | 47 | 2.0 | 7.0 | 0.00 | 0.00 | 0.00 | 49 | 1019.8 |
| 20260902222359 | 94 | 46 | 2.0 | 4.0 | 0.00 | 0.00 | 0.00 | 49 | 1019.9 |
| 20260902221854 | 95 | 36 | 3.0 | 4.0 | 0.00 | 0.00 | 0.00 | 49 | 1019.8 |
| 20260902221353 | 95 | 67 | 3.0 | 4.0 | 0.00 | 0.00 | 0.00 | 48 | 1019.9 |
| 20260902220849 | 95 | 19 | 2.0 | 2.0 | 0.00 | 0.00 | 0.00 | 48 | 1020.0 |
| 20260902220348 | 94 | 26 | 3.0 | 6.0 | 0.00 | 0.00 | 0.00 | 49 | 1019.9 |
| 20260902215843 | 95 | 90 | 1.0 | 4.0 | 0.00 | 0.00 | 0.00 | 49 | 1020.0 |
| 20260902215338 | 95 | 30 | 4.0 | 7.0 | 0.00 | 0.00 | 0.00 | 47 | 1020.1 |
| 20260902214834 | 96 | 12 | 1.0 | 3.0 | 0.00 | 0.00 | 0.00 | 47 | 1019.9 |
| 20260902214333 | 97 | 243 | 1.0 | 2.0 | 0.00 | 0.00 | 0.00 | 46 | 1019.9 |
| 20260902213828 | 95 | 359 | 1.0 | 3.0 | 0.00 | 0.00 | 0.00 | 48 | 1020.0 |
| 20260902213324 | 95 | 40 | 3.0 | 4.0 | 0.00 | 0.00 | 0.00 | 48 | 1020.0 |
| 20260902212822 | 96 | 22 | 3.0 | 4.0 | 0.00 | 0.00 | 0.00 | 47 | 1020.2 |
| 20260902212320 | 96 | 30 | 3.0 | 3.0 | 0.00 | 0.00 | 0.00 | 46 | 1019.9 |
| 20260902211816 | 96 | 348 | 3.0 | 4.0 | 0.00 | 0.00 | 0.00 | 45 | 1020.2 |
| 20260902211311 | 95 | 122 | 2.0 | 6.0 | 0.00 | 0.00 | 0.00 | 47 | 1019.9 |
| 20260902210806 | 95 | 258 | 1.0 | 2.0 | 0.00 | 0.00 | 0.00 | 46 | 1019.8 |
| 20260902210301 | 95 | 15 | 2.0 | 6.0 | 0.00 | 0.00 | 0.00 | 47 | 1020.0 |
| 20260902205759 | 96 | 82 | 4.0 | 7.0 | 0.00 | 0.00 | 0.00 | 46 | 1019.9 |
| 20260902205254 | 96 | 125 | 2.0 | 6.0 | 0.00 | 0.00 | 0.00 | 49 | 1019.9 |
| 20260902204749 | 98 | 228 | 0.0 | 0.0 | 0.00 | 0.00 | 0.00 | 46 | 1020.0 |
| 20260902204244 | 97 | 240 | 0.0 | 0.0 | 0.00 | 0.00 | 0.00 | 48 | 1020.2 |
| 20260902203744 | 95 | 235 | 0.0 | 1.0 | 0.00 | 0.00 | 0.00 | 50 | 1020.3 |
| 20260902203245 | 95 | 231 | 0.0 | 3.0 | 0.00 | 0.00 | 0.00 | 49 | 1020.2 |
| 20260902202740 | 96 | 263 | 0.0 | 1.0 | 0.00 | 0.00 | 0.00 | 47 | 1020.3 |
| 20260902202236 | 95 | 42 | 0.0 | 1.0 | 0.00 | 0.00 | 0.00 | 49 | 1020.3 |
| 20260902201733 | 95 | 53 | 2.0 | 3.0 | 0.00 | 0.00 | 0.00 | 48 | 1020.3 |
| 20260902201231 | 97 | 39 | 2.0 | 4.0 | 0.00 | 0.00 | 0.00 | 45 | 1020.4 |
| 20260902200727 | 98 | 5 | 1.0 | 6.0 | 0.00 | 0.00 | 0.00 | 45 | 1020.5 |
| 20260902200222 | 98 | 231 | 0.0 | 2.0 | 0.00 | 0.00 | 0.00 | 46 | 1020.5 |
| 20260902195718 | 96 | 252 | 0.0 | 2.0 | 0.00 | 0.00 | 0.00 | 48 | 1020.9 |
| 20260902195217 | 98 | 319 | 1.0 | 1.0 | 0.00 | 0.00 | 0.00 | 47 | 1020.8 |
| 20260902194716 | 97 | 228 | 0.0 | 1.0 | 0.00 | 0.00 | 0.00 | 46 | 1020.8 |
| 20260902194212 | 97 | 53 | 1.0 | 2.0 | 0.00 | 0.00 | 0.00 | 49 | 1020.8 |
| 20260902193707 | 95 | 237 | 0.0 | 3.0 | 0.00 | 0.00 | 0.00 | 54 | 1020.8 |
| 20260902193203 | 95 | 58 | 2.0 | 3.0 | 0.00 | 0.00 | 0.00 | 54 | 1020.7 |
| 20260902192701 | 95 | 109 | 0.0 | 1.0 | 0.00 | 0.00 | 0.00 | 51 | 1021.2 |
| 20260902192200 | 93 | 231 | 0.0 | 0.0 | 0.00 | 0.00 | 0.00 | 53 | 1021.2 |
| 20260902191655 | 93 | 144 | 0.0 | 1.0 | 0.00 | 0.00 | 0.00 | 54 | 1021.2 |
| 20260902191149 | 96 | 27 | 3.0 | 6.0 | 0.00 | 0.00 | 0.00 | 49 | 1021.2 |
| 20260902190645 | 98 | 237 | 1.0 | 2.0 | 0.00 | 0.00 | 0.00 | 46 | 1021.0 |
| 20260902190140 | 98 | 220 | 0.0 | 1.0 | 0.00 | 0.00 | 0.00 | 47 | 1021.3 |
| 20260902185635 | 96 | 177 | 0.0 | 1.0 | 0.00 | 0.00 | 0.00 | 52 | 1021.5 |
| 20260902185131 | 96 | 251 | 1.0 | 2.0 | 0.00 | 0.00 | 0.00 | 52 | 1021.5 |
| 20260902184626 | 96 | 61 | 2.0 | 2.0 | 0.00 | 0.00 | 0.00 | 51 | 1021.5 |
| 20260902184122 | 93 | 55 | 4.0 | 4.0 | 0.00 | 0.00 | 0.00 | 50 | 1021.6 |
| 20260902183618 | 94 | 16 | 2.0 | 2.0 | 0.00 | 0.00 | 0.00 | 51 | 1021.6 |
| 20260902183114 | 95 | 80 | 0.0 | 4.0 | 0.00 | 0.00 | 0.00 | 50 | 1021.6 |
| 20260902182610 | 97 | 135 | 0.0 | 2.0 | 0.00 | 0.00 | 0.00 | 48 | 1021.5 |
| 20260902182106 | 98 | 247 | 0.0 | 1.0 | 0.00 | 0.00 | 0.00 | 46 | 1021.6 |
| 20260902181602 | 96 | 231 | 0.0 | 2.0 | 0.00 | 0.00 | 0.00 | 52 | 1021.6 |
| 20260902181101 | 97 | 86 | 0.0 | 0.0 | 0.00 | 0.00 | 0.00 | 49 | 1021.7 |
| 20260902180601 | 94 | 187 | 0.0 | 2.0 | 0.00 | 0.00 | 0.00 | 53 | 1021.7 |
| 20260902180057 | 93 | 94 | 2.0 | 3.0 | 0.00 | 0.00 | 0.00 | 54 | 1021.8 |
| 20260902175556 | 91 | 53 | 1.0 | 2.0 | 0.00 | 0.00 | 0.00 | 56 | 1022.1 |
| 20260902175053 | 91 | 276 | 1.0 | 4.0 | 0.00 | 0.00 | 0.00 | 54 | 1021.9 |
| 20260902174549 | 92 | 238 | 0.0 | 4.0 | 0.00 | 0.00 | 0.00 | 51 | 1021.9 |
| 20260902174044 | 92 | 22 | 2.0 | 4.0 | 0.00 | 0.00 | 0.00 | 52 | 1022.0 |
| 20260902173543 | 93 | 7 | 3.0 | 4.0 | 0.00 | 0.00 | 0.00 | 53 | 1022.0 |
| 20260902173039 | 95 | 66 | 0.0 | 1.0 | 0.00 | 0.00 | 0.00 | 52 | 1022.0 |
| 20260902172533 | 95 | 208 | 0.0 | 1.0 | 0.00 | 0.00 | 0.00 | 50 | 1022.3 |
| 20260902172028 | 93 | 192 | 1.0 | 2.0 | 0.00 | 0.00 | 0.00 | 53 | 1022.2 |